Regional Weather Roundup
Issued by NWS

Home | Current Version | Previous Version | Text Only | Print | Product List | Glossary Off
Versions: 1 2 3 4 5 6 7 8 9 10 11 12 13 14 15 16 17 18 19 20 21 22 23 24 25 26 27 28 29 30 31 32 33 34 35 36 37 38 39 40 41 42 43 44 45 46 47 48 49 50

000
ASUS45 KBOU 280507
RWRCO

WEATHER ROUNDUP FOR COLORADO
NATIONAL WEATHER SERVICE DENVER/BOULDER CO
1100 PM MDT MON APR 27 2015

NOTE: "FAIR" INDICATES FEW OR NO CLOUDS BELOW 12000 FEET WITH NO
SIGNIFICANT WEATHER AND/OR OBSTRUCTIONS TO VISIBILITY.

COZ001>005-013-030-031-280600-
...NORTHWEST COLORADO...

CITY           SKY/WX    TMP DP  RH WIND       PRES   REMARKS
CRAIG          PTCLDY    44  37  76 E6        30.26R
HAYDEN         MOCLDY    45  37  76 E7        30.26F
MEEKER         PTCLDY    39  35  86 NE6       30.26R
MOUNT WERNER   NOT AVBL
STEAMBOAT SPGS CLOUDY    42  38  88 CALM      30.27S
WALDEN         MOCLDY    34  30  86 NW9       30.31R WCI  26
$$

COZ006>008-011-280600-
...WEST CENTRAL VALLEYS...

CITY           SKY/WX    TMP DP  RH WIND       PRES   REMARKS
GRAND JUNCTION CLOUDY    56  37  49 VRB6      30.16R
MONTROSE       CLOUDY    50  41  71 SE9       30.21R
EAGLE          CLOUDY    45  41  87 CALM      30.27R
RIFLE          CLOUDY    50  42  74 E5        30.21R
DELTA          CLOUDY    56  41  57 MISG      30.18R
NUCLA          CLOUDY    50  36  57 E9        30.23R
$$

COZ017>023-064>068-280600-
...SOUTHWEST COLORADO...

CITY           SKY/WX    TMP DP  RH WIND       PRES   REMARKS
DURANGO        MOCLDY    42  40  92 NE3       30.21R
CORTEZ         CLEAR     50  40  68 CALM      30.17R
PAGOSA SPRINGS MOCLDY    39  38  96 CALM      30.26R
TELLURIDE      FLURRIES  37  35  94 CALM      30.31S
WOLF CREEK PAS NOT AVBL
$$

COZ009-010-012-014-032>034-037-058>063-280600-
...CENTRAL COLORADO...

CITY           SKY/WX    TMP DP  RH WIND       PRES   REMARKS
ASPEN          CLOUDY    39  33  79 S3        30.26R
BUENA VISTA    CLOUDY    38  29  70 SE3       30.35S
COPPER MTN     PTCLDY    28  21  74 S10       30.38S WCI  19
BERTHOUD PASS  HAZE      19  12  73 E14G24    30.42S VSB<1/4 WCI   6
COTTONWOOD PAS CLOUDY    34  30  86 SE7       30.37S WCI  28
GUNNISON       PTCLDY    41  28  60 NE8       30.30R
KREMMLING      CLOUDY    39  34  81 SE6       30.30R
LEADVILLE      PTCLDY    27  26  96 S8        30.33R WCI  19
MONARCH PASS   CLOUDY    23  21  93 MISG      30.45R
SALIDA         CLOUDY    40  34  80 E7        30.42S
SUNLIGHT       CLOUDY    34  32  93 NE8       30.38S FOG     WCI  27
WILKERSON PASS CLOUDY    23  21  93 E6        30.40S FOG     WCI  16
$$

COZ069>075-280600-
...SAN LUIS VALLEY/SANGRE DE CRISTO MOUNTAINS...

CITY           SKY/WX    TMP DP  RH WIND       PRES   REMARKS
ALAMOSA        CLEAR     34  26  72 NW6       30.30R WCI  29
LA VETA PASS   FOG       28  27  93 MISG      30.34S VSB 1/4
SAGUACHE       CLEAR     36  28  75 NE9       30.31R
$$

COZ035-036-038>040-280600-
...NORTHERN COLORADO FRONT RANGE...

CITY           SKY/WX    TMP DP  RH WIND       PRES   REMARKS
DENVER INTL AP CLOUDY    44  40  85 CALM      30.34R
DMNS CITY PARK   N/A     42  39  90 SW1       30.35R
AURORA         MOCLDY    41  41  99 CALM      30.35R
FRONT RANGE AP NOT AVBL
ERIE MUNI ARPT CLOUDY    45  42  91 NW3       30.35S
BOULDER MUN AP CLOUDY    43  43 100 SW3       30.35S
CENTENNIAL     CLOUDY    42  38  85 CALM      30.35R
BROOMFIELD     NOT AVBL
FORT COLLINS   MOCLDY    45  39  81 CALM      30.36S
LONGMONT       CLOUDY    46  42  85 W5        30.37R
$$

COZ041-046-047-076>085-087-088-280600-
...PIKES PEAK/PALMER DIVIDE AND SOUTHERN FOOTHILLS...

CITY           SKY/WX    TMP DP  RH WIND       PRES   REMARKS
COLO. SPRINGS  CLOUDY    43  29  57 N10       30.35S
A. F. ACADEMY  CLOUDY    40  34  79 NW5       30.35S
ELLICOTT       CLOUDY   N/A N/A N/A N12       30.33R
FALCON         CLOUDY    39  31  72 N5        30.36S
FORT CARSON    CLOUDY    43  33  67 N7        30.33R
LIMON          CLOUDY    42  39  89 NW9       30.32S
MONUMENT HILL  CLOUDY    36  32  87 N6        30.35S
TRINIDAD       CLOUDY    43  37  79 N9        30.31R
$$

COZ042>045-048>051-090-091-280600-
...NORTHEAST COLORADO...

CITY           SKY/WX    TMP DP  RH WIND       PRES   REMARKS
GREELEY ARPT   CLOUDY    45  37  76 NW5       30.35R
AKRON          CLOUDY    46  38  73 NW8       30.30S
BURLINGTON     PTCLDY    43  33  68 NW7       30.27R
WRAY           MOCLDY    42  37  81 W9        30.27S
STERLING       CLOUDY    46  43  87 N8        30.30R
HOLYOKE        CLOUDY    52  41  66 NW8       30.27S
FORT MORGAN    CLOUDY    46  42  86 NW8       30.32S
$$

COZ086-089-092>099-280600-
...SOUTHEAST COLORADO...

CITY           SKY/WX    TMP DP  RH WIND       PRES   REMARKS
PUEBLO         CLOUDY    48  38  68 N13       30.31R
LA JUNTA       MOCLDY    46  36  68 N7        30.28S
LAMAR          PTCLDY    42  34  73 CALM      30.25R
SPRINGFIELD      N/A     41  33  73 N12       30.24R
$$


USA.gov is the U.S. government's official web portal to all federal, state and local government web resources and services.